CW9206 Weather Reports


Display with metric or nautical units.
time (UTC)temp
F
wind
direction
speed
MPH
gust
MPH
rain 1hr
in
rain 24hr
in
rain mn
in
humidity
%
barometer
mb
20260508035231 57 287 0.0 5.0 0.00 0.00 0.00 17 1015.1
20260508034731 58 287 0.0 4.0 0.00 0.00 0.00 18 1015.1
20260508033731 58 287 0.0 4.0 0.00 0.00 0.00 18 1015.0
20260508033231 58 287 0.0 3.0 0.00 0.00 0.00 19 1015.0
20260508032731 58 287 0.0 5.0 0.00 0.00 0.00 20 1015.0
20260508032231 58 288 0.0 5.0 0.00 0.00 0.00 21 1015.0
20260508031730 58 273 0.0 3.0 0.00 0.00 0.00 21 1014.8
20260508031231 58 273 0.0 3.0 0.00 0.00 0.00 22 1014.8
20260508030230 58 274 0.0 6.0 0.00 0.00 0.00 23 1014.8
20260508025731 59 291 0.0 6.0 0.00 0.00 0.00 25 1014.6
20260508025230 59 285 0.0 10.0 0.00 0.00 0.00 26 1014.6
20260508024230 60 265 2.0 7.0 0.00 0.00 0.00 28 1014.5
20260508023730 60 299 0.0 6.0 0.00 0.00 0.00 28 1014.5
20260508023230 60 288 1.0 6.0 0.00 0.00 0.00 28 1014.4
20260508022730 60 288 0.0 6.0 0.00 0.00 0.00 29 1014.3
20260508022230 61 284 0.0 6.0 0.00 0.00 0.00 30 1014.3
20260508021730 61 305 0.0 6.0 0.00 0.00 0.00 31 1014.2
20260508020729 62 325 0.0 9.0 0.00 0.00 0.00 34 1014.1
20260508020230 62 322 1.0 10.0 0.00 0.00 0.00 36 1014.0
20260508015730 63 74 0.0 11.0 0.00 0.00 0.00 39 1014.0
20260508015229 64 320 6.0 11.0 0.00 0.00 0.00 41 1014.0
20260508014730 65 309 6.0 9.0 0.00 0.00 0.00 43 1014.1
20260508014230 66 287 1.0 7.0 0.00 0.00 0.00 44 1014.1
20260508013229 67 320 1.0 7.0 0.00 0.00 0.00 44 1013.9
20260508012730 68 294 0.0 9.0 0.00 0.00 0.00 45 1013.9
20260508012229 68 302 0.0 10.0 0.00 0.00 0.00 45 1013.9
20260508011729 69 272 1.0 10.0 0.00 0.00 0.00 45 1013.8
20260508011229 69 273 0.0 10.0 0.00 0.00 0.00 45 1013.8
20260508010229 70 284 9.0 10.0 0.00 0.00 0.00 45 1013.9
20260508004729 71 250 3.0 7.0 0.00 0.00 0.00 45 1013.7
20260508004228 71 296 4.0 10.0 0.00 0.00 0.00 45 1014.0
20260508003728 71 314 1.0 10.0 0.00 0.00 0.00 45 1013.8
20260508003229 72 237 1.0 11.0 0.00 0.00 0.00 45 1013.7
20260508002728 72 298 4.0 11.0 0.00 0.00 0.00 45 1013.7
20260508002229 72 180 2.0 11.0 0.00 0.00 0.00 45 1013.7
20260508001728 72 290 0.0 11.0 0.00 0.00 0.00 45 1013.7
20260508000728 73 293 2.0 7.0 0.00 0.00 0.00 45 1013.7
20260508000228 72 259 1.0 9.0 0.00 0.00 0.00 46 1013.7
20260507235228 73 261 1.0 14.0 0.00 0.00 0.00 46 1013.8
20260507234728 74 311 1.0 14.0 0.00 0.00 0.00 46 1013.6
20260507234228 74 288 4.0 13.0 0.00 0.00 0.00 46 1013.6
20260507233728 75 304 1.0 13.0 0.00 0.00 0.00 45 1013.5
20260507232728 76 264 0.0 12.0 0.00 0.00 0.00 45 1013.6
20260507232227 76 242 3.0 12.0 0.00 0.00 0.00 44 1013.6
20260507231727 77 249 5.0 10.0 0.00 0.00 0.00 44 1013.6
20260507231227 77 291 4.0 12.0 0.00 0.00 0.00 43 1013.6
20260507230227 78 264 4.0 10.0 0.00 0.00 0.00 43 1013.7
20260507225727 78 311 0.0 7.0 0.00 0.00 0.00 43 1013.6
20260507225227 78 262 5.0 7.0 0.00 0.00 0.00 43 1013.7
20260507224727 78 290 0.0 9.0 0.00 0.00 0.00 43 1013.7
20260507224227 77 259 4.0 10.0 0.00 0.00 0.00 43 1013.7
20260507223727 78 219 0.0 10.0 0.00 0.00 0.00 42 1013.8
20260507223227 78 315 3.0 11.0 0.00 0.00 0.00 43 1013.8
20260507222727 77 225 1.0 11.0 0.00 0.00 0.00 43 1013.8
20260507221227 78 241 0.0 13.0 0.00 0.00 0.00 43 1014.0
20260507220727 78 315 4.0 12.0 0.00 0.00 0.00 43 1014.0
20260507220227 78 235 5.0 12.0 0.00 0.00 0.00 42 1014.0
20260507215726 78 306 0.0 12.0 0.00 0.00 0.00 43 1014.0
20260507215226 78 262 4.0 14.0 0.00 0.00 0.00 42 1014.0
20260507214726 78 327 3.0 14.0 0.00 0.00 0.00 43 1014.1
20260507214226 77 309 9.0 16.0 0.00 0.00 0.00 43 1014.1
20260507213726 77 249 6.0 16.0 0.00 0.00 0.00 43 1014.2
20260507213226 78 272 4.0 11.0 0.00 0.00 0.00 43 1014.2
20260507212727 78 346 3.0 14.0 0.00 0.00 0.00 43 1014.2
20260507212226 78 311 2.0 14.0 0.00 0.00 0.00 43 1014.2
20260507211725 78 323 7.0 13.0 0.00 0.00 0.00 42 1014.1
20260507211226 79 320 6.0 13.0 0.00 0.00 0.00 42 1014.2
20260507205725 79 326 6.0 13.0 0.00 0.00 0.00 42 1014.3
20260507205225 79 234 5.0 13.0 0.00 0.00 0.00 42 1014.4
20260507204725 79 298 2.0 12.0 0.00 0.00 0.00 42 1014.4
20260507204225 79 279 6.0 11.0 0.00 0.00 0.00 41 1014.4
20260507203225 81 278 6.0 12.0 0.00 0.00 0.00 40 1014.6
20260507202724 81 313 0.0 10.0 0.00 0.00 0.00 40 1014.6
20260507202224 82 253 1.0 10.0 0.00 0.00 0.00 39 1014.6
20260507201725 81 298 0.0 9.0 0.00 0.00 0.00 39 1014.6
20260507201224 81 317 4.0 9.0 0.00 0.00 0.00 39 1014.7
20260507200725 81 223 0.0 9.0 0.00 0.00 0.00 39 1014.7
20260507200225 81 288 3.0 7.0 0.00 0.00 0.00 38 1014.7
20260507195724 81 306 0.0 9.0 0.00 0.00 0.00 38 1014.8
20260507195224 81 245 0.0 9.0 0.00 0.00 0.00 38 1014.9
20260507194724 80 306 0.0 9.0 0.00 0.00 0.00 38 1014.7
20260507194224 80 225 0.0 5.0 0.00 0.00 0.00 37 1014.8
20260507193724 80 307 3.0 6.0 0.00 0.00 0.00 37 1014.9
20260507193224 79 307 2.0 6.0 0.00 0.00 0.00 37 1014.9
20260507192724 78 310 2.0 9.0 0.00 0.00 0.00 37 1015.0
20260507192224 78 312 0.0 9.0 0.00 0.00 0.00 37 1015.0
20260507191724 77 247 1.0 5.0 0.00 0.00 0.00 37 1015.1
20260507191223 77 256 3.0 5.0 0.00 0.00 0.00 37 1015.2
20260507190724 77 187 0.0 4.0 0.00 0.00 0.00 37 1015.2
20260507190224 77 178 0.0 6.0 0.00 0.00 0.00 36 1015.2
20260507185723 76 171 2.0 6.0 0.00 0.00 0.00 36 1015.3
20260507185224 76 303 2.0 5.0 0.00 0.00 0.00 35 1015.3
20260507184723 76 307 2.0 4.0 0.00 0.00 0.00 34 1015.4
20260507184223 76 308 0.0 6.0 0.00 0.00 0.00 33 1015.4
20260507183223 74 308 5.0 7.0 0.00 0.00 0.00 31 1015.3
20260507182723 73 308 0.0 7.0 0.00 0.00 0.00 31 1015.4
20260507182223 72 309 5.0 5.0 0.00 0.00 0.00 31 1015.5
20260507181723 71 309 0.0 5.0 0.00 0.00 0.00 30 1015.4
20260507181223 71 311 2.0 4.0 0.00 0.00 0.00 30 1015.5
20260507180723 70 310 0.0 4.0 0.00 0.00 0.00 30 1015.6
20260507180223 69 310 3.0 4.0 0.00 0.00 0.00 29 1015.4
20260507175723 68 310 0.0 4.0 0.00 0.00 0.00 29 1015.5
20260507175223 68 311 4.0 4.0 0.00 0.00 0.00 28 1015.5
20260507174723 67 311 0.0 5.0 0.00 0.00 0.00 28 1015.6
20260507174222 66 312 2.0 5.0 0.00 0.00 0.00 27 1015.6
20260507173722 66 311 0.0 4.0 0.00 0.00 0.00 26 1015.7
20260507173222 65 313 0.0 5.0 0.00 0.00 0.00 25 1015.5
20260507172222 64 313 0.0 5.0 0.00 0.00 0.00 24 1015.7
20260507171722 63 314 1.0 5.0 0.00 0.00 0.00 23 1015.6
20260507171222 63 308 0.0 5.0 0.00 0.00 0.00 22 1015.7
20260507170722 63 308 0.0 6.0 0.00 0.00 0.00 21 1015.8
20260507170252 62 307 3.0 6.0 0.00 0.00 0.00 20 1015.8
20260507165751 62 164 0.0 6.0 0.00 0.00 0.00 18 1015.8
20260507165252 62 320 0.0 5.0 0.00 0.00 0.00 16 1015.8
20260507164751 62 320 0.0 5.0 0.00 0.00 0.00 14 1015.9
20260507164252 61 321 0.0 5.0 0.00 0.00 0.00 12 1015.9
20260507163751 60 321 2.0 3.0 0.00 0.00 0.00 12 1015.9
20260507162752 58 321 0.0 2.0 0.00 0.00 0.00 12 1016.0
20260507162251 58 325 0.0 0.0 0.00 0.00 0.00 13 1016.0
20260507161751 57 322 0.0 0.0 0.00 0.00 0.00 13 1015.9
20260507161252 57 322 0.0 0.0 0.00 0.00 0.00 13 1016.0
20260507160751 56 322 0.0 0.0 0.00 0.00 0.00 13 1016.0
20260507155751 56 322 0.0 0.0 0.00 0.00 0.00 13 1016.1
20260507155250 56 322 0.0 0.0 0.00 0.00 0.00 13 1016.1
20260507154750 56 322 0.0 0.0 0.00 0.00 0.00 13 1016.1
20260507154250 55 322 0.0 0.0 0.00 0.00 0.00 13 1016.1
20260507153251 55 322 0.0 0.0 0.00 0.00 0.00 13 1016.1
20260507152250 56 322 0.0 0.0 0.00 0.00 0.00 13 1016.1
20260507151750 55 322 0.0 0.0 0.00 0.00 0.00 13 1016.1
20260507151250 55 322 0.0 3.0 0.00 0.00 0.00 13 1016.1
20260507150250 55 322 0.0 0.0 0.00 0.00 0.00 13 1016.1
20260507145250 55 322 0.0 0.0 0.00 0.00 0.00 13 1016.0
20260507144749 55 322 0.0 0.0 0.00 0.00 0.00 13 1016.0
20260507144250 55 322 0.0 0.0 0.00 0.00 0.00 13 1016.0
20260507143749 55 322 0.0 0.0 0.00 0.00 0.00 13 1016.0
20260507143249 55 322 0.0 0.0 0.00 0.00 0.00 13 1016.0
20260507142750 55 322 0.0 0.0 0.00 0.00 0.00 13 1016.0
20260507141749 55 322 0.0 0.0 0.00 0.00 0.00 13 1015.9
20260507140749 55 322 0.0 0.0 0.00 0.00 0.00 13 1015.8
20260507140249 55 322 0.0 0.0 0.00 0.00 0.00 13 1015.9
20260507135249 55 307 0.0 0.0 0.00 0.00 0.00 13 1015.9
20260507134749 55 307 0.0 0.0 0.00 0.00 0.00 13 1015.9
20260507134248 55 307 0.0 4.0 0.00 0.00 0.00 13 1015.8
20260507133749 55 307 0.0 4.0 0.00 0.00 0.00 13 1015.8
20260507131748 55 307 0.0 0.0 0.00 0.00 0.00 13 1015.5
20260507131248 55 307 0.0 0.0 0.00 0.00 0.00 13 1015.4
20260507130748 54 307 0.0 0.0 0.00 0.00 0.00 13 1015.4
20260507125748 54 307 0.0 0.0 0.00 0.00 0.00 13 1015.5
20260507125248 54 307 0.0 0.0 0.00 0.00 0.00 13 1015.4
20260507124748 55 307 0.0 0.0 0.00 0.00 0.00 13 1015.4
20260507124247 55 307 0.0 0.0 0.00 0.00 0.00 13 1015.5
20260507123747 55 307 0.0 0.0 0.00 0.00 0.00 13 1015.4
20260507123248 55 307 0.0 0.0 0.00 0.00 0.00 13 1015.4
20260507122248 55 307 0.0 0.0 0.00 0.00 0.00 13 1015.5
20260507121748 55 307 0.0 0.0 0.00 0.00 0.00 13 1015.6
20260507121247 55 307 0.0 0.0 0.00 0.00 0.00 13 1015.6
20260507120748 55 307 0.0 0.0 0.00 0.00 0.00 13 1015.6
20260507120247 55 307 0.0 0.0 0.00 0.00 0.00 13 1015.7
20260507115747 55 307 0.0 0.0 0.00 0.00 0.00 13 1015.8
20260507114247 55 307 0.0 0.0 0.00 0.00 0.00 13 1015.7
20260507113747 55 307 0.0 0.0 0.00 0.00 0.00 13 1015.8
20260507113247 55 307 0.0 0.0 0.00 0.00 0.00 13 1015.7
20260507112747 55 307 0.0 0.0 0.00 0.00 0.00 13 1015.8
20260507111746 55 307 0.0 0.0 0.00 0.00 0.00 13 1015.8
20260507111247 55 307 0.0 0.0 0.00 0.00 0.00 14 1015.8
20260507110746 55 307 0.0 0.0 0.00 0.00 0.00 14 1015.8
20260507105746 56 307 0.0 0.0 0.00 0.00 0.00 14 1015.9
20260507105246 56 307 0.0 0.0 0.00 0.00 0.00 14 1015.9
20260507104746 56 307 0.0 0.0 0.00 0.00 0.00 14 1016.0
20260507103746 56 307 0.0 0.0 0.00 0.00 0.00 14 1016.1
20260507103246 56 307 0.0 0.0 0.00 0.00 0.00 14 1016.1
20260507102246 56 307 0.0 0.0 0.00 0.00 0.00 14 1016.2
20260507101746 56 307 0.0 0.0 0.00 0.00 0.00 14 1016.2
20260507100745 56 307 0.0 0.0 0.00 0.00 0.00 14 1016.2
20260507095746 57 307 0.0 0.0 0.00 0.00 0.00 14 1016.4
20260507095246 57 307 0.0 0.0 0.00 0.00 0.00 13 1016.4
20260507094746 57 307 0.0 0.0 0.00 0.00 0.00 13 1016.4
20260507094245 57 307 0.0 0.0 0.00 0.00 0.00 13 1016.5
20260507093745 57 307 0.0 0.0 0.00 0.00 0.00 13 1016.5
20260507093245 57 307 0.0 0.0 0.00 0.00 0.00 13 1016.6
20260507092745 57 307 0.0 0.0 0.00 0.00 0.00 13 1016.5
20260507092245 57 307 0.0 0.0 0.00 0.00 0.00 13 1016.6
20260507091245 57 307 0.0 0.0 0.00 0.00 0.00 13 1016.6
20260507090745 57 307 0.0 0.0 0.00 0.00 0.00 13 1016.6
20260507090245 57 307 0.0 0.0 0.00 0.00 0.00 13 1016.7
20260507085744 57 307 0.0 0.0 0.00 0.00 0.00 13 1016.6
20260507085244 57 307 0.0 0.0 0.00 0.00 0.00 13 1016.8
20260507084745 57 307 0.0 0.0 0.00 0.00 0.00 13 1016.8
20260507084244 57 307 0.0 0.0 0.00 0.00 0.00 13 1016.9
20260507083744 57 307 0.0 3.0 0.00 0.00 0.00 13 1017.0
20260507083244 57 307 0.0 3.0 0.00 0.00 0.00 13 1017.1
20260507082744 57 307 0.0 2.0 0.00 0.00 0.00 13 1017.1
20260507082244 57 307 0.0 2.0 0.00 0.00 0.00 13 1017.1
20260507081744 57 307 0.0 0.0 0.00 0.00 0.00 13 1017.1
20260507080745 57 307 0.0 0.0 0.00 0.00 0.00 13 1017.2
20260507080244 57 307 0.0 0.0 0.00 0.00 0.00 13 1017.2
20260507075744 57 307 0.0 0.0 0.00 0.00 0.00 13 1017.3
20260507075244 57 307 0.0 0.0 0.00 0.00 0.00 13 1017.4
20260507074243 56 307 0.0 0.0 0.00 0.00 0.00 13 1017.4
20260507073743 56 307 0.0 0.0 0.00 0.00 0.00 13 1017.4
20260507073244 56 307 0.0 0.0 0.00 0.00 0.00 13 1017.3
20260507072743 56 307 0.0 0.0 0.00 0.00 0.00 13 1017.3
20260507072243 56 307 0.0 0.0 0.00 0.00 0.00 13 1017.3
20260507071743 56 307 0.0 0.0 0.00 0.00 0.00 13 1017.4
20260507071243 55 307 0.0 0.0 0.00 0.00 0.00 14 1017.3
20260507070743 55 307 0.0 0.0 0.00 0.00 0.00 14 1017.4
20260507065742 54 307 0.0 0.0 0.00 0.00 0.00 15 1017.4
20260507065243 54 307 0.0 0.0 0.00 0.00 0.00 15 1017.5
20260507064743 54 307 0.0 0.0 0.00 0.00 0.00 16 1017.5
20260507064243 54 307 0.0 0.0 0.00 0.00 0.00 16 1017.5
20260507063743 54 307 0.0 0.0 0.00 0.00 0.00 16 1017.5
20260507063242 54 307 0.0 0.0 0.00 0.00 0.00 17 1017.5
20260507062742 54 307 0.0 0.0 0.00 0.00 0.00 18 1017.5
20260507062242 54 307 0.0 0.0 0.00 0.00 0.00 18 1017.5
20260507061742 54 307 0.0 0.0 0.00 0.00 0.00 19 1017.4
20260507061242 54 307 0.0 0.0 0.00 0.00 0.00 19 1017.5
20260507060742 54 307 0.0 0.0 0.00 0.00 0.00 19 1017.5
20260507060242 55 307 0.0 0.0 0.00 0.00 0.00 19 1017.5
20260507055742 55 307 0.0 0.0 0.00 0.00 0.00 19 1017.5
20260507055242 55 307 0.0 0.0 0.00 0.00 0.00 19 1017.4
20260507054742 55 307 0.0 0.0 0.00 0.00 0.00 19 1017.4
20260507054242 55 307 0.0 0.0 0.00 0.00 0.00 18 1017.4
20260507053242 56 307 0.0 0.0 0.00 0.00 0.00 18 1017.5
20260507052741 56 307 0.0 0.0 0.00 0.00 0.00 18 1017.4
20260507052242 56 307 0.0 0.0 0.00 0.00 0.00 19 1017.5
20260507051741 56 307 0.0 0.0 0.00 0.00 0.00 19 1017.6
20260507050741 56 307 0.0 0.0 0.00 0.00 0.00 19 1017.6
20260507045741 57 307 0.0 0.0 0.00 0.00 0.00 20 1017.6
20260507045241 57 307 0.0 0.0 0.00 0.00 0.00 20 1017.5
20260507044741 57 307 0.0 0.0 0.00 0.00 0.00 20 1017.5
20260507044241 57 307 0.0 0.0 0.00 0.00 0.00 21 1017.4
20260507043741 57 307 0.0 0.0 0.00 0.00 0.00 21 1017.4
20260507043240 57 307 0.0 0.0 0.00 0.00 0.00 22 1017.3
20260507042740 57 307 0.0 0.0 0.00 0.00 0.00 22 1017.3
20260507042241 57 307 0.0 0.0 0.00 0.00 0.00 23 1017.2
20260507041241 58 307 0.0 0.0 0.00 0.00 0.00 25 1017.2
20260507040240 58 307 0.0 1.0 0.00 0.00 0.00 27 1017.1